Location: Arboucave
(43.6130°N, 0.4343°W)
Time: 12:10:29
(UTC+00:00)

Cosmos 1536 Rocket - Pass Details

Date: 17 November 2025
Orbit: 599 x 625 km, 82.5° (Epoch: 11 December)

Event Time Altitude Azimuth Distance (km) Brightness Sun altitude
Rises 18:29:13 0° 350° (N) 2,915 7.1 -20.6°
Reaches altitude 10° 18:31:28 10° 349° (NNW) 2,000 6.2 -21.0°
Maximum altitude 18:35:53 76° 265° (W) 641 3.6 -21.8°
Drops below altitude 10° 18:40:15 10° 179° (S) 1,970 6.2 -22.6°
Sets 18:42:27 0° 177° (S) 2,865 7.0 -23.0°
